JE4YIZ-13 Weather Reports


Display with metric or nautical units.
time (UTC)temp
F
wind
direction
speed
MPH
gust
MPH
rain 1hr
in
rain 24hr
in
rain mn
in
humidity
%
barometer
mb
20260509185635 48 176 1.0 2.0 0.00 0.00 0.00 82 1017.6
20260509185117 48 175 1.0 2.0 0.00 0.00 0.00 81 1017.6
20260509184627 48 178 0.0 2.0 0.00 0.00 0.00 81 1017.7
20260509184137 48 178 1.0 2.0 0.00 0.00 0.00 81 1017.6
20260509183620 48 179 2.0 3.0 0.00 0.00 0.00 82 1017.5
20260509183126 48 207 2.0 4.0 0.00 0.00 0.00 82 1017.4
20260509182636 48 216 1.0 3.0 0.00 0.00 0.00 82 1017.4
20260509182120 49 185 0.0 1.0 0.00 0.00 0.00 81 1017.3
20260509181630 49 185 0.0 1.0 0.00 0.00 0.00 81 1017.3
20260509181130 49 185 0.0 1.0 0.00 0.00 0.00 80 1017.3
20260509180613 49 185 0.0 1.0 0.00 0.00 0.00 80 1017.1
20260509180123 50 185 0.0 1.0 0.00 0.00 0.00 80 1017.1
20260509175633 50 185 1.0 1.0 0.00 0.00 0.00 80 1017.1
20260509175118 50 185 0.0 2.0 0.00 0.00 0.00 81 1017.1
20260509174627 50 186 1.0 2.0 0.00 0.00 0.00 80 1017.0
20260509174206 50 185 1.0 1.0 0.00 0.00 0.00 81 1017.2
20260509173631 50 185 0.0 1.0 0.00 0.00 0.00 81 1017.1
20260509173113 50 185 0.0 1.0 0.00 0.00 0.00 81 1017.0
20260509172612 50 186 1.0 2.0 0.00 0.00 0.00 81 1017.0
20260509172116 50 185 1.0 2.0 0.00 0.00 0.00 81 1017.1
20260509171625 50 185 0.0 2.0 0.00 0.00 0.00 82 1017.2
20260509171135 50 185 0.0 1.0 0.00 0.00 0.00 82 1017.2
20260509170619 50 185 1.0 1.0 0.00 0.00 0.00 83 1017.0
20260509170128 50 185 0.0 2.0 0.00 0.00 0.00 83 1017.0
20260509165611 49 185 1.0 2.0 0.00 0.00 0.00 83 1017.0
20260509165122 49 185 0.0 1.0 0.00 0.00 0.00 83 1017.0
20260509164633 49 185 0.0 0.0 0.00 0.00 0.00 82 1017.1
20260509164137 49 185 0.0 0.0 0.00 0.00 0.00 82 1017.1
20260509163629 50 185 0.0 0.0 0.00 0.00 0.00 82 1017.2
20260509163137 50 185 0.0 1.0 0.00 0.00 0.00 82 1017.2
20260509162619 50 185 0.0 1.0 0.00 0.00 0.00 82 1017.0
20260509162129 50 185 1.0 1.0 0.00 0.00 0.00 82 1017.2
20260509161611 50 192 0.0 2.0 0.00 0.00 0.00 81 1017.1
20260509161132 50 192 1.0 3.0 0.00 0.00 0.00 82 1017.2
20260509160621 50 184 1.0 2.0 0.00 0.00 0.00 81 1017.2
20260509160126 50 184 1.0 2.0 0.00 0.00 0.00 81 1017.3
20260509155636 51 184 1.0 2.0 0.00 0.00 0.00 81 1017.4
20260509155140 51 185 1.0 2.0 0.00 0.00 0.00 81 1017.4
20260509154628 51 185 0.0 2.0 0.00 0.00 0.00 81 1017.4
20260509154158 51 186 1.0 2.0 0.00 0.00 0.00 80 1017.5
20260509153640 51 186 1.0 2.0 0.00 0.00 0.00 80 1017.6
20260509152641 52 184 1.0 3.0 0.00 0.00 0.00 79 1017.7
20260509152126 52 169 1.0 2.0 0.00 0.00 0.00 79 1017.7
20260509151636 52 169 1.0 2.0 0.00 0.00 0.00 79 1017.7
20260509151119 52 167 1.0 2.0 0.00 0.00 0.00 79 1017.8
20260509150629 52 167 0.0 1.0 0.00 0.00 0.00 79 1017.7
20260509150137 52 167 1.0 1.0 0.00 0.00 0.00 79 1017.6
20260509145635 52 167 0.0 1.0 0.00 0.00 0.00 78 1017.6
20260509145126 53 167 0.0 1.0 0.00 0.00 0.00 78 1017.6
20260509144656 53 167 0.0 1.0 0.00 0.00 0.00 77 1017.7
20260509144111 53 167 0.0 2.0 0.00 0.00 0.00 77 1017.8
20260509143621 53 167 1.0 2.0 0.00 0.00 0.00 77 1017.9
20260509143129 53 167 1.0 2.0 0.00 0.00 0.00 77 1017.9
20260509142612 53 139 0.0 1.0 0.00 0.00 0.00 77 1018.1
20260509142147 53 139 0.0 1.0 0.00 0.00 0.00 76 1018.0
20260509141637 54 139 0.0 1.0 0.00 0.00 0.00 76 1018.1
20260509141118 54 139 0.0 1.0 0.00 0.00 0.00 75 1018.1
20260509140629 54 139 0.0 1.0 0.00 0.00 0.00 75 1018.1
20260509140132 54 139 1.0 1.0 0.00 0.00 0.00 74 1018.1
20260509135615 55 136 0.0 1.0 0.00 0.00 0.00 73 1018.2
20260509135125 55 136 0.0 1.0 0.00 0.00 0.00 73 1018.1
20260509134636 55 136 0.0 1.0 0.00 0.00 0.00 72 1018.1
20260509134121 55 136 0.0 1.0 0.00 0.00 0.00 72 1018.1
20260509133634 55 136 0.0 1.0 0.00 0.00 0.00 71 1018.1
20260509133137 56 136 0.0 1.0 0.00 0.00 0.00 70 1018.2
20260509132618 56 135 0.0 1.0 0.00 0.00 0.00 70 1018.1
20260509132124 57 135 0.0 1.0 0.00 0.00 0.00 69 1018.1
20260509131633 57 135 0.0 1.0 0.00 0.00 0.00 68 1018.1
20260509131117 58 135 0.0 1.0 0.00 0.00 0.00 68 1018.0
20260509130628 58 135 0.0 2.0 0.00 0.00 0.00 67 1018.0
20260509130136 58 169 1.0 3.0 0.00 0.00 0.00 67 1017.9
20260509125617 59 167 2.0 3.0 0.00 0.00 0.00 67 1017.9
20260509125118 59 176 1.0 3.0 0.00 0.00 0.00 67 1017.9
20260509124624 59 195 2.0 3.0 0.00 0.00 0.00 67 1017.7
20260509124135 59 162 1.0 3.0 0.00 0.00 0.00 67 1017.7
20260509123618 59 176 1.0 4.0 0.00 0.00 0.00 67 1017.6
20260509122638 59 174 1.0 4.0 0.00 0.00 0.00 66 1017.6
20260509122127 59 167 1.0 4.0 0.00 0.00 0.00 66 1017.5
20260509121636 59 180 0.0 3.0 0.00 0.00 0.00 66 1017.5
20260509121119 59 178 1.0 3.0 0.00 0.00 0.00 66 1017.4
20260509120627 59 185 1.0 2.0 0.00 0.00 0.00 66 1017.3
20260509120132 59 174 1.0 4.0 0.00 0.00 0.00 66 1017.1
20260509115616 60 180 1.0 3.0 0.00 0.00 0.00 66 1017.0
20260509115126 60 184 2.0 6.0 0.00 0.00 0.00 65 1017.0
20260509114648 60 172 2.0 5.0 0.00 0.00 0.00 65 1017.0
20260509114157 60 183 2.0 5.0 0.00 0.00 0.00 65 1017.0
20260509113637 60 142 2.0 4.0 0.00 0.00 0.00 66 1016.8
20260509113125 60 158 0.0 2.0 0.00 0.00 0.00 66 1016.8
20260509112615 60 184 1.0 3.0 0.00 0.00 0.00 65 1016.9
20260509112111 60 184 0.0 3.0 0.00 0.00 0.00 64 1016.8
20260509111622 61 184 1.0 5.0 0.00 0.00 0.00 64 1016.7
20260509111132 61 181 1.0 5.0 0.00 0.00 0.00 63 1016.7
20260509110614 61 216 2.0 5.0 0.00 0.00 0.00 62 1016.6
20260509110123 62 203 3.0 6.0 0.00 0.00 0.00 62 1016.5
20260509105654 62 186 2.0 8.0 0.00 0.00 0.00 61 1016.4
20260509105114 62 198 5.0 10.0 0.00 0.00 0.00 61 1016.3
20260509104619 62 172 5.0 10.0 0.00 0.00 0.00 60 1016.3
20260509104150 63 180 3.0 9.0 0.00 0.00 0.00 60 1016.1
20260509103632 63 175 3.0 9.0 0.00 0.00 0.00 59 1016.1
20260509103120 63 213 4.0 7.0 0.00 0.00 0.00 59 1016.1
20260509102630 63 187 2.0 11.0 0.00 0.00 0.00 58 1016.0
20260509102113 64 212 5.0 11.0 0.00 0.00 0.00 57 1016.0
20260509101613 64 174 3.0 7.0 0.00 0.00 0.00 57 1015.9
20260509100633 65 212 3.0 7.0 0.00 0.00 0.00 56 1015.8
20260509100115 65 183 2.0 10.0 0.00 0.00 0.00 55 1015.6
20260509095624 66 220 4.0 10.0 0.00 0.00 0.00 54 1015.6
20260509095154 66 184 4.0 8.0 0.00 0.00 0.00 53 1015.6
20260509094616 66 207 4.0 8.0 0.00 0.00 0.00 52 1015.5
20260509094124 67 162 4.0 10.0 0.00 0.00 0.00 51 1015.6
20260509093146 68 205 4.0 11.0 0.00 0.00 0.00 49 1015.5
20260509092635 69 223 5.0 11.0 0.00 0.00 0.00 47 1015.5
20260509092114 69 243 4.0 10.0 0.00 0.00 0.00 46 1015.5
20260509091624 70 176 5.0 10.0 0.00 0.00 0.00 44 1015.6
20260509091134 70 247 6.0 10.0 0.00 0.00 0.00 43 1015.5
20260509090617 71 208 3.0 7.0 0.00 0.00 0.00 42 1015.4
20260509090147 72 174 3.0 7.0 0.00 0.00 0.00 40 1015.4
20260509085634 72 186 2.0 9.0 0.00 0.00 0.00 40 1015.4
20260509085116 72 141 4.0 9.0 0.00 0.00 0.00 40 1015.3
20260509084626 73 141 2.0 6.0 0.00 0.00 0.00 39 1015.3
20260509084154 72 135 2.0 6.0 0.00 0.00 0.00 39 1015.3
20260509083116 73 116 2.0 8.0 0.00 0.00 0.00 39 1015.1
20260509082625 73 128 3.0 9.0 0.00 0.00 0.00 38 1015.1
20260509082135 73 156 3.0 9.0 0.00 0.00 0.00 38 1015.0
20260509081618 73 162 2.0 7.0 0.00 0.00 0.00 37 1015.0
20260509081149 73 125 4.0 8.0 0.00 0.00 0.00 38 1015.0
20260509080659 73 132 3.0 8.0 0.00 0.00 0.00 36 1015.0
20260509080113 73 149 2.0 8.0 0.00 0.00 0.00 38 1014.9
20260509075623 72 111 4.0 10.0 0.00 0.00 0.00 37 1014.9
20260509075131 72 172 5.0 10.0 0.00 0.00 0.00 37 1014.8
20260509074644 73 112 5.0 9.0 0.00 0.00 0.00 37 1014.8
20260509074119 73 100 4.0 9.0 0.00 0.00 0.00 37 1014.7
20260509073628 73 169 5.0 9.0 0.00 0.00 0.00 35 1014.7
20260509073137 72 103 2.0 10.0 0.00 0.00 0.00 36 1014.7
20260509072620 72 85 5.0 10.0 0.00 0.00 0.00 35 1014.7
20260509072126 72 84 4.0 8.0 0.00 0.00 0.00 37 1014.7
20260509071636 72 151 4.0 8.0 0.00 0.00 0.00 36 1014.7
20260509071118 72 63 3.0 10.0 0.00 0.00 0.00 36 1014.7
20260509070628 72 63 6.0 10.0 0.00 0.00 0.00 34 1014.8
20260509070136 72 65 4.0 9.0 0.00 0.00 0.00 35 1014.7
20260509065618 72 90 5.0 12.0 0.00 0.00 0.00 36 1014.8
20260509065128 72 140 3.0 12.0 0.00 0.00 0.00 34 1014.8
20260509064633 72 145 5.0 11.0 0.00 0.00 0.00 35 1014.9
20260509064116 72 70 4.0 11.0 0.00 0.00 0.00 36 1014.9
20260509063646 72 54 6.0 12.0 0.00 0.00 0.00 35 1015.0
20260509063156 72 48 5.0 11.0 0.00 0.00 0.00 36 1014.9
20260509062636 71 67 6.0 12.0 0.00 0.00 0.00 37 1014.9
20260509062125 71 54 7.0 12.0 0.00 0.00 0.00 36 1014.9
20260509061635 71 35 6.0 10.0 0.00 0.00 0.00 35 1015.0
20260509061114 71 76 4.0 10.0 0.00 0.00 0.00 37 1015.1
20260509060619 71 104 6.0 10.0 0.00 0.00 0.00 36 1015.1
20260509060128 71 120 5.0 9.0 0.00 0.00 0.00 36 1015.2
20260509055636 71 118 5.0 12.0 0.00 0.00 0.00 37 1015.3
20260509055117 70 70 8.0 12.0 0.00 0.00 0.00 38 1015.4
20260509054626 70 72 8.0 12.0 0.00 0.00 0.00 38 1015.5
20260509054135 70 60 6.0 12.0 0.00 0.00 0.00 39 1015.5
20260509053618 70 38 7.0 12.0 0.00 0.00 0.00 40 1015.6
20260509053129 71 54 7.0 12.0 0.00 0.00 0.00 41 1015.6
20260509052633 71 60 5.0 8.0 0.00 0.00 0.00 43 1015.8
20260509052115 71 115 5.0 10.0 0.00 0.00 0.00 41 1015.8
20260509051625 71 63 5.0 10.0 0.00 0.00 0.00 40 1015.8
20260509051134 71 87 3.0 10.0 0.00 0.00 0.00 42 1015.9
20260509050616 70 86 3.0 10.0 0.00 0.00 0.00 42 1016.0
20260509050125 70 56 5.0 9.0 0.00 0.00 0.00 43 1016.1
20260509045657 69 75 5.0 13.0 0.00 0.00 0.00 44 1016.2
20260509045118 69 82 7.0 13.0 0.00 0.00 0.00 42 1016.2
20260509044645 69 82 6.0 10.0 0.00 0.00 0.00 42 1016.2
20260509044146 70 56 4.0 10.0 0.00 0.00 0.00 42 1016.2
20260509043635 70 84 5.0 10.0 0.00 0.00 0.00 43 1016.2
20260509043117 69 77 5.0 10.0 0.00 0.00 0.00 42 1016.3
20260509042628 69 38 5.0 10.0 0.00 0.00 0.00 42 1016.3
20260509042112 69 78 5.0 10.0 0.00 0.00 0.00 41 1016.3
20260509041612 68 25 5.0 10.0 0.00 0.00 0.00 40 1016.3
20260509041137 68 58 7.0 10.0 0.00 0.00 0.00 40 1016.4
20260509040618 68 18 6.0 9.0 0.00 0.00 0.00 37 1016.4
20260509040123 68 29 5.0 9.0 0.00 0.00 0.00 37 1016.5
20260509035655 68 45 6.0 12.0 0.00 0.00 0.00 38 1016.6
20260509035116 68 34 6.0 12.0 0.00 0.00 0.00 37 1016.7
20260509034625 67 67 6.0 11.0 0.00 0.00 0.00 39 1016.6
20260509034157 67 85 5.0 11.0 0.00 0.00 0.00 40 1016.7
20260509033617 67 77 6.0 11.0 0.00 0.00 0.00 38 1016.7
20260509033121 67 339 7.0 11.0 0.00 0.00 0.00 38 1016.7
20260509032630 67 116 6.0 11.0 0.00 0.00 0.00 40 1016.7
20260509032132 67 80 6.0 10.0 0.00 0.00 0.00 42 1016.9
20260509031620 67 49 7.0 10.0 0.00 0.00 0.00 44 1016.8
20260509031149 67 30 6.0 13.0 0.00 0.00 0.00 41 1016.9
20260509030611 66 59 7.0 13.0 0.00 0.00 0.00 45 1017.0
20260509030141 66 136 7.0 12.0 0.00 0.00 0.00 48 1017.0
20260509025625 66 90 5.0 12.0 0.00 0.00 0.00 50 1017.1
20260509025155 66 36 5.0 10.0 0.00 0.00 0.00 50 1017.2
20260509024615 66 60 4.0 10.0 0.00 0.00 0.00 50 1017.3
20260509024124 66 87 6.0 10.0 0.00 0.00 0.00 52 1017.2
20260509023634 66 54 5.0 10.0 0.00 0.00 0.00 52 1017.3
20260509023114 65 7 6.0 10.0 0.00 0.00 0.00 54 1017.3
20260509022614 65 28 5.0 10.0 0.00 0.00 0.00 53 1017.3
20260509022123 65 68 6.0 10.0 0.00 0.00 0.00 53 1017.3
20260509021629 65 43 5.0 9.0 0.00 0.00 0.00 55 1017.3
20260509021112 65 34 5.0 10.0 0.00 0.00 0.00 54 1017.4
20260509020622 65 98 7.0 10.0 0.00 0.00 0.00 52 1017.4
20260509020130 65 76 6.0 10.0 0.00 0.00 0.00 54 1017.5
20260509015612 65 20 5.0 9.0 0.00 0.00 0.00 54 1017.5
20260509015114 65 62 4.0 8.0 0.00 0.00 0.00 58 1017.5
20260509014624 65 53 4.0 8.0 0.00 0.00 0.00 55 1017.6
20260509014133 65 66 4.0 7.0 0.00 0.00 0.00 56 1017.7
20260509013619 65 353 4.0 7.0 0.00 0.00 0.00 55 1017.7
20260509013128 64 54 4.0 8.0 0.00 0.00 0.00 57 1017.6
20260509012638 64 1 4.0 8.0 0.00 0.00 0.00 54 1017.7
20260509012119 64 340 5.0 7.0 0.00 0.00 0.00 54 1017.7
20260509011630 64 316 4.0 7.0 0.00 0.00 0.00 54 1017.9
20260509011112 64 49 4.0 8.0 0.00 0.00 0.00 51 1017.8
20260509010613 64 63 5.0 8.0 0.00 0.00 0.00 51 1017.9
20260509010119 64 51 4.0 10.0 0.00 0.00 0.00 53 1017.9
20260509005629 64 51 5.0 10.0 0.00 0.00 0.00 53 1017.8
20260509005133 64 24 4.0 7.0 0.00 0.00 0.00 51 1017.9
20260509004622 64 65 4.0 7.0 0.00 0.00 0.00 51 1017.8
20260509004132 64 29 3.0 8.0 0.00 0.00 0.00 51 1017.7
20260509003615 64 48 4.0 8.0 0.00 0.00 0.00 49 1017.8
20260509003122 64 340 5.0 7.0 0.00 0.00 0.00 49 1017.7
20260509002653 64 58 3.0 8.0 0.00 0.00 0.00 51 1017.7
20260509002111 64 60 4.0 8.0 0.00 0.00 0.00 52 1017.7
20260509001642 64 52 4.0 6.0 0.00 0.00 0.00 53 1017.7
20260509001201 64 27 2.0 6.0 0.00 0.00 0.00 52 1017.7
20260509000626 64 96 4.0 8.0 0.00 0.00 0.00 53 1017.7
20260509000135 64 82 5.0 8.0 0.00 0.00 0.00 52 1017.6
20260508235617 64 80 3.0 5.0 0.00 0.00 0.00 52 1017.7
20260508235148 64 82 2.0 5.0 0.00 0.00 0.00 52 1017.7
20260508234631 63 110 2.0 6.0 0.00 0.00 0.00 53 1017.6
20260508234114 63 103 4.0 6.0 0.00 0.00 0.00 51 1017.6
20260508233644 64 78 3.0 6.0 0.00 0.00 0.00 53 1017.6
20260508233130 64 86 1.0 5.0 0.00 0.00 0.00 56 1017.7
20260508232613 64 65 3.0 4.0 0.00 0.00 0.00 57 1017.6
20260508232122 64 86 2.0 4.0 0.00 0.00 0.00 57 1017.6
20260508231653 63 131 1.0 3.0 0.00 0.00 0.00 55 1017.6
20260508231115 63 95 1.0 3.0 0.00 0.00 0.00 56 1017.5
20260508230621 64 109 1.0 2.0 0.00 0.00 0.00 56 1017.5
20260508230152 64 175 1.0 2.0 0.00 0.00 0.00 54 1017.5
20260508225636 63 148 0.0 1.0 0.00 0.00 0.00 57 1017.5
20260508225124 63 148 0.0 1.0 0.00 0.00 0.00 57 1017.5
20260508224632 63 148 0.0 1.0 0.00 0.00 0.00 57 1017.5
20260508224116 63 148 0.0 1.0 0.00 0.00 0.00 57 1017.4
20260508223627 63 158 0.0 0.0 0.00 0.00 0.00 60 1017.4
20260508223153 62 176 0.0 0.0 0.00 0.00 0.00 62 1017.4
20260508222615 61 176 0.0 0.0 0.00 0.00 0.00 64 1017.3
20260508222124 61 176 0.0 0.0 0.00 0.00 0.00 66 1017.3
20260508221634 60 176 0.0 0.0 0.00 0.00 0.00 71 1017.3
20260508221117 59 177 0.0 0.0 0.00 0.00 0.00 73 1017.2
20260508220627 58 176 0.0 0.0 0.00 0.00 0.00 77 1017.2
20260508220136 57 177 0.0 0.0 0.00 0.00 0.00 78 1017.1
20260508215619 55 177 0.0 0.0 0.00 0.00 0.00 79 1017.1
20260508215129 55 177 0.0 0.0 0.00 0.00 0.00 81 1017.1
20260508214614 54 177 0.0 0.0 0.00 0.00 0.00 82 1017.0
20260508214124 53 177 0.0 0.0 0.00 0.00 0.00 84 1017.0
20260508213635 52 177 0.0 1.0 0.00 0.00 0.00 85 1016.8
20260508213138 51 177 0.0 1.0 0.00 0.00 0.00 85 1016.8
20260508212627 50 177 0.0 1.0 0.00 0.00 0.00 86 1016.8
20260508212132 50 177 1.0 1.0 0.00 0.00 0.00 86 1016.6
20260508211642 49 177 1.0 1.0 0.00 0.00 0.00 86 1016.7
20260508211148 49 177 0.0 1.0 0.00 0.00 0.00 86 1016.6
20260508210638 49 177 0.0 0.0 0.00 0.00 0.00 85 1016.7
20260508210122 49 177 0.0 1.0 0.00 0.00 0.00 85 1016.4
20260508205116 49 177 0.0 1.0 0.00 0.00 0.00 85 1016.3
20260508204626 49 177 1.0 1.0 0.00 0.00 0.00 85 1016.2
20260508204136 49 177 1.0 1.0 0.00 0.00 0.00 85 1016.3
20260508203615 49 177 1.0 1.0 0.00 0.00 0.00 85 1016.3
20260508203124 49 177 1.0 1.0 0.00 0.00 0.00 85 1016.2
20260508202630 49 177 1.0 1.0 0.00 0.00 0.00 85 1016.3
20260508202113 49 177 1.0 1.0 0.00 0.00 0.00 84 1016.3
20260508201625 49 177 0.0 1.0 0.00 0.00 0.00 84 1016.3
20260508201154 49 177 0.0 1.0 0.00 0.00 0.00 84 1016.1
20260508200615 49 177 0.0 1.0 0.00 0.00 0.00 84 1016.1
20260508200124 50 177 0.0 1.0 0.00 0.00 0.00 84 1016.0
20260508195634 50 178 1.0 1.0 0.00 0.00 0.00 84 1016.0
20260508195118 50 177 0.0 2.0 0.00 0.00 0.00 83 1016.0
20260508194623 50 178 1.0 2.0 0.00 0.00 0.00 83 1016.1
20260508194132 50 176 1.0 1.0 0.00 0.00 0.00 83 1016.0
20260508193613 50 176 1.0 2.0 0.00 0.00 0.00 82 1015.8
20260508193122 51 176 0.0 2.0 0.00 0.00 0.00 82 1015.9
20260508192653 51 176 1.0 2.0 0.00 0.00 0.00 82 1015.9
20260508192115 51 175 0.0 1.0 0.00 0.00 0.00 82 1015.9
20260508191625 51 175 0.0 1.0 0.00 0.00 0.00 81 1015.8
20260508191153 51 175 0.0 1.0 0.00 0.00 0.00 81 1015.6
20260508190615 51 178 0.0 1.0 0.00 0.00 0.00 80 1015.4
20260508190122 52 178 0.0 1.0 0.00 0.00 0.00 80 1015.3